| time (UTC) | temp C | wind direction | speed KPH | gust KPH | rain 1hr cm | rain 24hr cm | rain mn cm | humidity % | barometer mb |
| 20260504231519 | 13 | 230 | 0.0 | 0.0 | 0.00 | 0.05 | 0.00 | 94 | 1011.5 |
| 20260504230017 | 13 | 230 | 0.0 | 0.0 | 0.00 | 0.05 | 0.00 | 94 | 1011.5 |
| 20260504224515 | 14 | 232 | 0.0 | 3.2 | 0.00 | 0.05 | 0.00 | 94 | 1011.4 |
| 20260504223112 | 15 | 234 | 0.0 | 0.0 | 0.00 | 0.05 | 0.00 | 94 | 1011.1 |
| 20260504221627 | 15 | 234 | 0.0 | 1.6 | 0.00 | 0.05 | 0.00 | 94 | 1011.1 |
| 20260504220058 | 15 | 234 | 0.0 | 0.0 | 0.00 | 0.05 | 0.05 | 94 | 1011.2 |
| 20260504214557 | 15 | 234 | 0.0 | 1.6 | 0.00 | 0.05 | 0.05 | 94 | 1011.8 |
| 20260504213102 | 15 | 234 | 0.0 | 1.6 | 0.00 | 0.05 | 0.05 | 94 | 1011.9 |
| 20260504211557 | 15 | 236 | 0.0 | 1.6 | 0.00 | 0.05 | 0.05 | 94 | 1012.1 |
| 20260504210014 | 15 | 236 | 0.0 | 6.4 | 0.00 | 0.05 | 0.05 | 94 | 1012.0 |
| 20260504203106 | 15 | 190 | 0.0 | 0.0 | 0.00 | 0.05 | 0.05 | 94 | 1011.6 |
| 20260504201514 | 15 | 277 | 0.0 | 0.0 | 0.00 | 0.05 | 0.05 | 94 | 1011.6 |
| 20260504201512 | 15 | 277 | 0.0 | 0.0 | 0.00 | 0.05 | 0.05 | 94 | 1011.5 |
| 20260504200029 | 15 | 346 | 0.0 | 0.0 | 0.00 | 0.05 | 0.05 | 94 | 1011.3 |
| 20260504194632 | 15 | 346 | 0.0 | 0.0 | 0.00 | 0.05 | 0.05 | 94 | 1011.2 |
| 20260504193005 | 16 | 345 | 0.0 | 0.0 | 0.00 | 0.05 | 0.05 | 93 | 1011.0 |
| 20260504191505 | 16 | 310 | 0.0 | 4.8 | 0.00 | 0.05 | 0.05 | 93 | 1010.8 |
| 20260504190110 | 16 | 250 | 0.0 | 6.4 | 0.00 | 0.05 | 0.05 | 93 | 1010.6 |
| 20260504184610 | 16 | 201 | 0.0 | 6.4 | 0.00 | 0.05 | 0.05 | 93 | 1010.4 |
| 20260504183019 | 16 | 182 | 1.6 | 6.4 | 0.00 | 0.05 | 0.05 | 93 | 1010.3 |
| 20260504181612 | 16 | 77 | 0.0 | 6.4 | 0.00 | 0.05 | 0.05 | 93 | 1010.3 |
| 20260504180126 | 16 | 200 | 0.0 | 4.8 | 0.00 | 0.05 | 0.05 | 93 | 1010.3 |
| 20260504174633 | 16 | 248 | 1.6 | 11.3 | 0.00 | 0.05 | 0.05 | 93 | 1010.4 |
| 20260504173051 | 16 | 265 | 1.6 | 9.7 | 0.03 | 0.05 | 0.05 | 92 | 1010.6 |
| 20260504171622 | 16 | 200 | 1.6 | 11.3 | 0.03 | 0.05 | 0.05 | 92 | 1010.5 |
| 20260504170145 | 17 | 175 | 4.8 | 11.3 | 0.03 | 0.05 | 0.05 | 92 | 1010.7 |
| 20260504160105 | 17 | 202 | 0.0 | 8.0 | 0.03 | 0.03 | 0.03 | 89 | 1011.3 |
| 20260504150126 | 18 | 184 | 3.2 | 6.4 | 0.00 | 0.00 | 0.00 | 86 | 1011.2 |
| 20260504110109 | 22 | 178 | 1.6 | 9.7 | 0.00 | 0.00 | 0.00 | 69 | 1011.7 |
| 20260504081620 | 20 | 269 | 4.8 | 11.3 | 0.00 | 0.00 | 0.00 | 73 | 1012.0 |
| 20260504080131 | 19 | 180 | 1.6 | 9.7 | 0.00 | 0.00 | 0.00 | 76 | 1012.4 |
| 20260504070115 | 18 | 197 | 0.0 | 4.8 | 0.00 | 0.00 | 0.00 | 83 | 1012.4 |
| 20260504060110 | 15 | 276 | 0.0 | 3.2 | 0.00 | 0.00 | 0.00 | 92 | 1012.8 |
| 20260504050123 | 13 | 246 | 0.0 | 0.0 | 0.00 | 0.00 | 0.00 | 91 | 1012.8 |
| 20260504044609 | 13 | 246 | 0.0 | 1.6 | 0.00 | 0.00 | 0.00 | 91 | 1012.9 |
| 20260504043124 | 13 | 245 | 0.0 | 1.6 | 0.00 | 0.00 | 0.00 | 91 | 1012.8 |
| 20260504041625 | 13 | 245 | 0.0 | 1.6 | 0.00 | 0.00 | 0.00 | 90 | 1012.9 |
| 20260504040039 | 13 | 245 | 0.0 | 0.0 | 0.00 | 0.00 | 0.00 | 90 | 1013.0 |
| 20260504034625 | 14 | 246 | 0.0 | 1.6 | 0.00 | 0.00 | 0.00 | 91 | 1013.2 |
| 20260504033110 | 14 | 246 | 0.0 | 3.2 | 0.00 | 0.00 | 0.00 | 91 | 1013.3 |
| 20260504031510 | 14 | 199 | 0.0 | 3.2 | 0.00 | 0.00 | 0.00 | 90 | 1013.3 |
| 20260504030034 | 14 | 173 | 0.0 | 3.2 | 0.00 | 0.00 | 0.00 | 90 | 1013.4 |
| 20260504024622 | 14 | 169 | 0.0 | 3.2 | 0.00 | 0.00 | 0.00 | 90 | 1013.5 |
| 20260504023036 | 13 | 202 | 0.0 | 0.0 | 0.00 | 0.00 | 0.00 | 91 | 1013.6 |
| 20260504021617 | 13 | 205 | 0.0 | 0.0 | 0.00 | 0.00 | 0.00 | 91 | 1013.5 |
| 20260504020051 | 13 | 207 | 0.0 | 0.0 | 0.00 | 0.00 | 0.00 | 91 | 1013.6 |
| 20260504014544 | 13 | 207 | 0.0 | 0.0 | 0.00 | 0.00 | 0.00 | 90 | 1013.6 |
| 20260504013054 | 13 | 207 | 0.0 | 0.0 | 0.00 | 0.00 | 0.00 | 90 | 1013.7 |
| 20260504011517 | 13 | 207 | 0.0 | 0.0 | 0.00 | 0.00 | 0.00 | 90 | 1013.7 |
| 20260504010140 | 13 | 207 | 0.0 | 0.0 | 0.00 | 0.00 | 0.00 | 89 | 1014.0 |
| 20260504004519 | 13 | 207 | 0.0 | 0.0 | 0.00 | 0.00 | 0.00 | 89 | 1014.1 |
| 20260504003033 | 14 | 207 | 0.0 | 0.0 | 0.00 | 0.00 | 0.00 | 89 | 1014.0 |
| 20260504001614 | 14 | 207 | 0.0 | 0.0 | 0.00 | 0.00 | 0.00 | 89 | 1014.2 |
| 20260504000019 | 14 | 207 | 0.0 | 0.0 | 0.00 | 0.00 | 0.00 | 89 | 1014.4 |
| 20260503234619 | 14 | 207 | 0.0 | 0.0 | 0.00 | 0.00 | 0.00 | 90 | 1014.5 |
| 20260503233042 | 14 | 207 | 0.0 | 0.0 | 0.00 | 0.00 | 0.00 | 90 | 1014.6 |